Regional Weather Roundup
Issued by NWS

Home | Current Version | Previous Version | Graphics & Text | Print | Product List | Glossary On
Versions: 1 2 3 4 5 6 7 8 9 10 11 12 13 14 15 16 17 18 19 20 21 22 23 24 25 26 27 28 29 30 31 32 33 34 35 36 37 38 39 40 41 42 43 44 45 46 47 48 49 50
000
ASUS43 KMKX 051111
RWRWI

WISCONSIN REGIONAL WEATHER ROUNDUP
NATIONAL WEATHER SERVICE MILWAUKEE/SULLIVAN WI
500 AM CST MON DEC 05 2016

NOTE: "FAIR" INDICATES FEW OR NO CLOUDS BELOW 12,000 FEET WITH NO
SIGNIFICANT WEATHER AND/OR OBSTRUCTIONS TO VISIBILITY.

WIZ001-002-006>008-014>016-023>028-051200-
NORTHWEST WISCONSIN

CITY           SKY/WX    TMP DP  RH WIND       PRES   REMARKS
SUPERIOR ARPT  CLOUDY    33  29  85 W6        29.76S WCI  28
ASHLAND        CLOUDY    34  29  82 W8        29.76R WCI  27
HAYWARD        CLOUDY    33  28  81 SW5       29.77R WCI  29
SIREN          CLEAR     29  28  95 SW5       29.78S WCI  24
CUMBERLAND     FOG       23  23 100 SW5       29.79S VSB 1/4 WCI  17
RICE LAKE      CLEAR     26  25  97 CALM      29.81S FOG
CHETEK         CLEAR     26  26  99 S3        29.81R FOG
LADYSMITH      CLOUDY    31  29  92 S5        29.81S WCI  27
EAU CLAIRE     CLEAR     28  27  96 S6        29.82S FOG     WCI  22
MENOMONIE      FOG       25  24  99 CALM      29.83R VSB 1/4
NEW RICHMOND   CLEAR     24  24 100 S5        29.80S FOG     WCI  18
OSCEOLA        CLEAR     25  25 100 SE3       29.82S FOG
$$

WIZ003>005-009-010-017-018-051200-
NORTH CENTRAL WISCONSIN

CITY           SKY/WX    TMP DP  RH WIND       PRES   REMARKS
MANITOWISH WTR CLOUDY    31  31 100 W8G16     29.73R WCI  24
ARBOR VITAE    CLOUDY    33  31  92 W8        29.74S WCI  26
WOODRUFF       CLOUDY    33  31  92 W8        29.74S WCI  26
RHINELANDER    CLOUDY    32  29  88 W9        29.76R WCI  24
EAGLE RIVER    CLOUDY    32  31  96 W10       29.73R WCI  23
LAND O LAKES   MIX PCPN  32  31  96 W7        29.73S WCI  26
PHILLIPS       CLOUDY    31  29  93 SW9       29.77R WCI  23
TOMAHAWK       CLOUDY    32  28  85 W6        29.79R WCI  26
MEDFORD        CLOUDY    30  28  94 W5        29.80R WCI  25
MERRILL        CLOUDY    32  30  91 W8        29.80S WCI  25
$$

WIZ029-030-035-036-043>047-051200-
CENTRAL WISCONSIN

CITY           SKY/WX    TMP DP  RH WIND       PRES   REMARKS
WAUSAU         CLOUDY    32  29  88 SW9       29.81R WCI  24
MOSINEE        CLOUDY    32  32 100 SW10      29.85R WCI  24
MARSHFIELD     MOCLDY    32  30  92 SW10      29.83R WCI  24
STEVENS POINT  CLOUDY    32  32  99 W6        29.86R WCI  26
WAUPACA        MOCLDY    36  32  87 SW7       29.87R WCI  30
WAUTOMA        CLOUDY    32  31  96 SW7       29.88S WCI  26
WISC RAPIDS    MOCLDY    32  32 100 SW7       29.87S WCI  26
CAMP DOUGLAS   CLOUDY    34  31  88 SW5       29.88R WCI  30
$$

WIZ011>013-019>022-031-037>040-048>050-051200-
NORTHEAST WISCONSIN

CITY           SKY/WX    TMP DP  RH WIND       PRES   REMARKS
ANTIGO         CLOUDY    31  28  88 W13       29.79R WCI  21
SHAWANO        CLOUDY    35  32  88 SW6       29.84S WCI  30
OCONTO         CLOUDY    33  31  93 W9        29.84R WCI  26
STURGEON BAY   CLOUDY    34  32  92 W12G20    29.84R WCI  25
GREEN BAY      CLOUDY    36  33  89 SW9       29.87R WCI  29
MANITOWOC      CLOUDY    35  32  88 SW9       29.89R WCI  28
APPLETON       NOT AVBL
CLINTONVILLE   CLOUDY    34  32  93 SW8       29.86R WCI  27
OSHKOSH        CLOUDY    34  30  85 W8        29.88R WCI  27
$$

WIZ032>034-041-042-053>061-051200-
SOUTHWEST WISCONSIN

CITY           SKY/WX    TMP DP  RH WIND       PRES   REMARKS
LA CROSSE      CLOUDY    35  32  88 S9        29.88S WCI  28
SPARTA         MOCLDY    33  32  98 SW3       29.88S
VIROQUA        CLOUDY    32  32 100 SW7       29.88S WCI  26
BOSCOBEL       CLOUDY    35  33  92 S3        29.93S FOG
PRAIRIE DU CHI CLOUDY    34  31  92 SW3       29.92S FOG
PLATTEVILLE    CLOUDY    33  33 100 SW7       29.93F WCI  27
$$

WIZ056-057-062-063-064-067-068-051200-
SOUTH CENTRAL WISCONSIN

CITY           SKY/WX    TMP DP  RH WIND       PRES   REMARKS
REEDSBURG      CLOUDY    33  32  98 SW7       29.91S WCI  27
BARABOO/DELLS  CLOUDY    33  31  94 SW9       29.90S WCI  25
LONE ROCK      CLOUDY    34  32  92 SW6       29.93S FOG     WCI  29
MINERAL POINT  FOG       34  34 100 SW7       29.92S VSB 1/2 WCI  28
MADISON        CLOUDY    33  31  92 W7        29.93R WCI  27
MIDDLETON      CLOUDY    34  34 100 SW6       29.93S WCI  29
WATERTOWN      CLOUDY    32  32 100 SW6       29.94R WCI  27
MONROE         FOG       32  32 100 SW9       29.94S VSB 3/4 WCI  24
JANESVILLE     CLOUDY    34  34 100 SW6       29.96S FOG     WCI  29
$$

WIZ051-052-058>065-066-070>072-051200-
SOUTHEAST WISCONSIN

CITY           SKY/WX    TMP DP  RH WIND       PRES   REMARKS
MILWAUKEE      CLOUDY    34  30  85 SW9G20    29.96R WCI  27
WAUKESHA       CLOUDY    32  30  93 SW7       29.95R WCI  26
MILWAUKEE/TIMM CLOUDY    32  30  93 W10       29.95R WCI  24
RACINE         CLOUDY    33  30  88 W8        29.98R WCI  26
BURLINGTON     CLOUDY    32  31  96 CALM      29.96R
KENOSHA        CLOUDY    33  30  88 W13       29.97R WCI  24
FOND DU LAC    CLOUDY    34  29  82 SW9       29.91R WCI  27
SHEBOYGAN      CLOUDY    34  30  85 W12       29.90R WCI  25
WEST BEND      CLOUDY    32  32 100 W8        29.91S WCI  25
JUNEAU         CLOUDY    32  31  94 SW9       29.93S WCI  24
$$

LSZ147-162-051200-
LAKE SUPERIOR

STATION/POSITION TIME  TEMP    WIND        PRES    WAVE
                       AIR SEA DIR/SP/G            HT/PER
                 (UTC) (F)     (DEG/KT/KT) (MB)    (FT/S)
DEVILS ISLAND    1100   36     260/ 20/ 23 1007.2R
PORT WING        1030   36     260/ 13/ 21 1007.8R
SAXON HARBOR     1030   36     240/  5/  9 1007.5S
$$

LMZ867-665-643>646-051200-
LAKE MICHIGAN

STATION/POSITION TIME  TEMP    WIND        PRES    WAVE
                       AIR SEA DIR/SP/G            HT/PER
                 (UTC) (F)     (DEG/KT/KT) (MB)    (FT/S)
CHAMBERS ISLAND  1040   36     200/  9/ 16 1009.1R
NORTHPORT PIER   1040   36     260/  4/ 17 1008.8S
SISTER BAY       1038   38     280/ 21/ 24   N/A
ALGOMA LAKESHORE 1036          270/ 10/ 13   N/A
KEWAUNEE LAKESHO 1048   35     250/ 10/ 14 1010.6R
SHEBOYGAN LAKESH 1100   35     240/ 11/ 15 1013.1R
PORT WASHINGTON  1030   35     260/  7/ 12 1014.2R
MILWAUKEE LAKESH 1050   35     240/ 10/ 12   N/A
KENOSHA   LAKESH 1100   34     260/  9/ 13 1015.2
$$

TC  - TEMPERATURE IN CELSIUS
VSB - VISIBILITY IN STATUTE MILES
WCI - WIND CHILL INDEX
HX  - HEAT INDEX





USA.gov is the U.S. government's official web portal to all federal, state and local government web resources and services.